RADUGA 29 [-]

Last updated on March 31, 2020, 4:59 a.m. UTC

1 22557U 93013A   20090.52634369 -.00000362  00000-0  00000-0 0  9998
2 22557  14.9304   3.4073 0006119  43.7763  95.0886  1.00325888 98927
UTC
Height (km)
Latitude
Longitude
Inclination
Orbital Period
UTC large
Height (km)
Speed (km/s)
/
Latitude / Longitude
Inclination (degrees)
Orbital Period (minutes)
Azimuth
Elevation
Range (km)
Doppler Factor
iOS Compass Heading
iOS Angle

Next 30 passes for location: Hong Kong

Rise time Rise Azimuth (degrees) Set time Set Azimuth (degrees) Duration Max altitude (degrees)

No matching passes for this satellites